sat.trackr.live / text

‹ back to catalog

SHIYAN-30 04

NORAD 68140 · 2026-048B

PAYLOAD ACTIVE UNKNOWN

§ Identity

Operator
Country
PRC
Launch date
2026-03-12
Launch site
XICLF
Launch vehicle
Mass (kg)
RCS (m²)

External: N2YO · Heavens-Above · Gunter

§ Orbital elements

Epoch: 2026-05-24T22:29:52.307808Z

Period
96.53 min
Inclination
34.9924°
Eccentricity
0.0002941
Mean motion
14.91719039 rev/d
Perigee alt
590.5 km
Apogee alt
594.6 km
Semi-major
6,970.7 km
B*
1.5995e-4
RAAN
47.1648°
Arg perigee
180.0264°
Mean anomaly
180.0441°
Rev number
1,089

§ Raw data

SHIYAN-30 041 68140U 26048B   26144.93741097  .00001614  00000+0  15995-3 0  99992 68140  34.9924  47.1648 0002941 180.0264 180.0441 14.91719039 10899

JSON: /api/v1/satellites/68140 · /tle

For live sub-satellite position, see the globe view (requires WebGL).

§ Visibility from observer

Set your observer location to see the next 7 days of passes ≥ 10°. The values pass through the URL so the page stays shareable.

No JS? Fill the form by hand. The geolocation button needs JavaScript.